This is the latest recevied weather packets stored in our database for station/object F4ETJ-1. If no packets are shown the sender has not sent any weather packets the latest 10 day(s).
| Time | Temp. | Humidity | Pressure | Rain* | Wind** | Luminosity | Snow |
|---|---|---|---|---|---|---|---|
| 1777927313 | 13.89° C | 85% | 1010.2 hPa | 0 mm | - | - | - |
| 1777924070 | 14.44° C | 84% | 1009.8 hPa | 0 mm | - | - | - |
| 1777923710 | 14.44° C | 84% | 1009.8 hPa | 0 mm | - | - | - |
| 1777922989 | 14.44° C | 84% | 1009.7 hPa | 0 mm | - | - | - |
| 1777921551 | 15° C | 82% | 1009.6 hPa | 0 mm | - | - | - |
| 1777920827 | 15° C | 81% | 1009.5 hPa | 0 mm | - | - | - |
| 1777919025 | 15.56° C | 79% | 1009.3 hPa | 0 mm | - | - | - |
| 1777918665 | 15.56° C | 80% | 1009.2 hPa | 0 mm | - | - | - |
| 1777917584 | 16.11° C | 79% | 1009.1 hPa | 0 mm | - | - | - |
| 1777917223 | 16.11° C | 80% | 1009.2 hPa | 0 mm | - | - | - |
| 1777916863 | 16.11° C | 80% | 1009 hPa | 0 mm | - | - | - |
| 1777915782 | 16.11° C | 80% | 1008.9 hPa | 0 mm | - | - | - |
| 1777915422 | 16.11° C | 80% | 1008.9 hPa | 0 mm | - | - | - |
| 1777913260 | 16.11° C | 78% | 1008.9 hPa | 0 mm | - | - | - |
| 1777912179 | 16.11° C | 78% | 1009 hPa | 0 mm | - | - | - |
| 1777911098 | 16.67° C | 77% | 1009.1 hPa | 0 mm | - | - | - |
| 1777910017 | 16.11° C | 79% | 1009 hPa | 0 mm | - | - | - |
| 1777909656 | 16.11° C | 79% | 1009 hPa | 0 mm | - | - | - |
| 1777904973 | 16.67° C | 79% | 1008.9 hPa | 0 mm | - | - | - |
| 1777898846 | 16.11° C | 82% | 1009.2 hPa | 0 mm | - | - | - |
| 1777889839 | 14.44° C | 94% | 1009.7 hPa | 2.79 mm | - | - | - |
| 1777887317 | 13.33° C | 95% | 1009.7 hPa | 13.21 mm | - | - | - |
| 1777884069 | 13.33° C | 94% | 1009.7 hPa | 0.51 mm | - | - | - |
| 1777883709 | 14.44° C | 95% | 1009.6 hPa | 0.25 mm | - | - | - |
| 1777883349 | 14.44° C | 95% | 1009.6 hPa | 0.25 mm | - | - | - |
* Rain latest hour (hover to see other rain measurements)
** Current wind speed in m/s (hover to see current wind gust speed)